DLH337 EVRA-ULAA

Flight info

Callsign DLH337
Flight time N/A
Altitude 39000
Route VANAG M990 VALGA DCT TUKMA P989 MEGAS/K0900F390 P989 BESNO T693 DISUP T821 MAKOG MAKOG2L
Aircraft B77L/H-SDE1E2E3FGHIJ2J3J4J5M1RWXY/LB1D1

Departure

Time N/A
Airport Riga International Airport (EVRA)

Arrival

Time 2026-04-26 11:22
Airport Talagi Airport (ULAA)
Time Latitude Longitude Altitude Speed Heading
2026-04-26 09:31 57.38168 24.24661 18868 ft 408 kts 56°
2026-04-26 09:31 57.39585 24.29261 19613 ft 413 kts 64°
2026-04-26 09:31 57.40727 24.34177 20377 ft 418 kts 68°
2026-04-26 09:32 57.41863 24.39179 21115 ft 422 kts 66°
2026-04-26 09:32 57.43069 24.44106 21825 ft 427 kts 65°
2026-04-26 09:32 57.44395 24.49149 22534 ft 432 kts 64°
2026-04-26 09:32 57.45759 24.54062 23168 ft 436 kts 60°
2026-04-26 09:33 57.47463 24.58754 23820 ft 440 kts 53°
2026-04-26 09:33 57.49227 24.63432 24396 ft 444 kts 54°
2026-04-26 09:33 57.51262 24.67775 24926 ft 447 kts 43°
2026-04-26 09:33 57.53530 24.71778 25445 ft 452 kts 46°
2026-04-26 09:34 57.55557 24.76282 26056 ft 456 kts 53°
2026-04-26 09:34 57.57309 24.81229 26685 ft 460 kts 59°
2026-04-26 09:34 57.58839 24.86498 27277 ft 464 kts 63°
2026-04-26 09:34 57.60236 24.91954 27837 ft 468 kts 65°
2026-04-26 09:35 57.61582 24.97520 28413 ft 472 kts 66°
2026-04-26 09:35 57.62951 25.03117 28951 ft 476 kts 65°
2026-04-26 09:35 57.64358 25.08748 29495 ft 480 kts 65°
2026-04-26 09:35 57.65792 25.14412 30007 ft 483 kts 64°
2026-04-26 09:36 57.67221 25.20033 30548 ft 485 kts 64°
2026-04-26 09:36 57.68666 25.25714 31245 ft 482 kts 64°
2026-04-26 09:36 57.70105 25.31368 31892 ft 481 kts 64°
2026-04-26 09:36 57.71581 25.36977 32480 ft 480 kts 63°
2026-04-26 09:37 57.73086 25.42536 33050 ft 479 kts 63°
2026-04-26 09:37 57.74560 25.48110 33596 ft 478 kts 64°
2026-04-26 09:37 57.75988 25.53718 34118 ft 476 kts 65°
2026-04-26 09:37 57.77387 25.59334 34618 ft 475 kts 65°
2026-04-26 09:38 57.78782 25.64947 35097 ft 474 kts 65°
2026-04-26 09:38 57.80173 25.70546 35556 ft 473 kts 65°
2026-04-26 09:38 57.81563 25.76140 35997 ft 473 kts 65°
2026-04-26 09:38 57.82950 25.81729 36401 ft 472 kts 65°
2026-04-26 09:39 57.84396 25.87255 36731 ft 472 kts 60°
2026-04-26 09:39 57.86235 25.92372 37074 ft 472 kts 51°
2026-04-26 09:39 57.88498 25.96827 37415 ft 472 kts 41°
2026-04-26 09:39 57.91083 26.00513 37735 ft 472 kts 34°
2026-04-26 09:40 57.93832 26.03907 38086 ft 472 kts 32°
2026-04-26 09:40 57.96590 26.07249 38446 ft 471 kts 33°
2026-04-26 09:40 57.99318 26.10673 38739 ft 471 kts 34°
2026-04-26 09:40 58.02014 26.14188 38980 ft 472 kts 35°
2026-04-26 09:41 58.04693 26.17785 39000 ft 472 kts 36°
2026-04-26 09:41 58.10021 26.25074 39000 ft 472 kts 36°
2026-04-26 09:42 58.15345 26.32339 39000 ft 471 kts 35°
2026-04-26 09:42 58.20654 26.39516 39000 ft 471 kts 36°
2026-04-26 09:43 58.25968 26.46803 39000 ft 471 kts 36°
2026-04-26 09:43 58.31270 26.54127 39000 ft 471 kts 36°
2026-04-26 09:44 58.36566 26.61476 39000 ft 471 kts 36°
2026-04-26 09:44 58.41861 26.68852 39000 ft 471 kts 36°
2026-04-26 09:45 58.47152 26.76252 39000 ft 471 kts 36°
2026-04-26 09:45 58.52436 26.83567 39000 ft 471 kts 36°
2026-04-26 09:46 58.57723 26.91022 39000 ft 471 kts 36°
2026-04-26 09:46 58.62989 26.98514 39000 ft 471 kts 37°
2026-04-26 09:47 58.68252 27.06025 39000 ft 471 kts 37°
2026-04-26 09:47 58.73346 27.13915 39002 ft 471 kts 45°
2026-04-26 09:47 58.75458 27.18734 38984 ft 470 kts 57°
2026-04-26 09:48 58.76888 27.24372 39007 ft 470 kts 71°
2026-04-26 09:48 58.79264 27.36107 38999 ft 471 kts 64°
2026-04-26 09:49 58.82441 27.47164 39004 ft 472 kts 63°
2026-04-26 09:49 58.85260 27.58634 39000 ft 472 kts 65°
2026-04-26 09:50 58.87993 27.70085 39000 ft 471 kts 65°
2026-04-26 09:50 58.90795 27.81543 39000 ft 471 kts 64°
2026-04-26 09:51 58.93605 27.92992 39000 ft 471 kts 64°
2026-04-26 09:51 58.96459 28.04415 39000 ft 471 kts 63°
2026-04-26 09:52 58.99340 28.15848 39000 ft 471 kts 64°
2026-04-26 09:52 59.03606 28.32954 39000 ft 471 kts 64°
2026-04-26 09:53 59.06404 28.44461 39000 ft 471 kts 65°
2026-04-26 09:53 59.09166 28.56035 39000 ft 471 kts 65°
2026-04-26 09:54 59.11917 28.67603 39000 ft 471 kts 65°
2026-04-26 09:54 59.14671 28.79182 39000 ft 471 kts 65°
2026-04-26 09:55 59.17419 28.90795 39000 ft 471 kts 65°
2026-04-26 09:55 59.20124 29.02342 39000 ft 471 kts 65°
2026-04-26 09:56 59.22832 29.13997 39000 ft 471 kts 65°
2026-04-26 09:56 59.25532 29.25685 39000 ft 471 kts 66°
2026-04-26 09:57 59.28203 29.37317 39000 ft 471 kts 66°
2026-04-26 09:57 59.30568 29.47458 39000 ft 471 kts 65°
2026-04-26 09:58 59.33334 29.59075 39000 ft 471 kts 65°
2026-04-26 09:58 59.36045 29.70774 39000 ft 471 kts 66°
2026-04-26 09:59 59.38278 29.80531 39000 ft 471 kts 66°
2026-04-26 09:59 59.41393 29.94254 39000 ft 471 kts 66°
2026-04-26 10:00 59.44034 30.05963 39000 ft 471 kts 66°
2026-04-26 10:00 59.46678 30.17751 39000 ft 471 kts 66°
2026-04-26 10:01 59.49311 30.29560 39000 ft 471 kts 66°
2026-04-26 10:01 59.51937 30.41405 39000 ft 471 kts 66°
2026-04-26 10:02 59.54550 30.53255 39000 ft 471 kts 66°
2026-04-26 10:02 59.57206 30.65068 39000 ft 471 kts 66°
2026-04-26 10:03 59.59809 30.76932 39000 ft 471 kts 67°
2026-04-26 10:03 59.62361 30.88855 39000 ft 471 kts 67°
2026-04-26 10:04 59.64905 31.00792 39000 ft 471 kts 67°
2026-04-26 10:04 59.67574 31.12513 38985 ft 470 kts 58°
2026-04-26 10:05 59.69626 31.17525 38998 ft 470 kts 43°
2026-04-26 10:05 59.72277 31.21274 39002 ft 470 kts 27°
2026-04-26 10:05 59.75353 31.23446 39003 ft 471 kts 11°
2026-04-26 10:05 59.78598 31.24385 39003 ft 471 kts
2026-04-26 10:06 59.84845 31.28216 39003 ft 472 kts 24°
2026-04-26 10:06 59.90925 31.33227 39000 ft 472 kts 21°
2026-04-26 10:07 59.97061 31.37868 39000 ft 471 kts 21°
2026-04-26 10:07 60.03147 31.42514 39000 ft 471 kts 21°
2026-04-26 10:08 60.09306 31.46998 39000 ft 471 kts 19°
2026-04-26 10:08 60.14445 31.50612 39000 ft 471 kts 19°
2026-04-26 10:09 60.20535 31.55497 39000 ft 471 kts 24°
2026-04-26 10:09 60.26530 31.60853 39000 ft 471 kts 24°
2026-04-26 10:10 60.32545 31.66127 39000 ft 471 kts 23°
2026-04-26 10:10 60.38573 31.71370 39000 ft 471 kts 23°
2026-04-26 10:11 60.44610 31.76529 38999 ft 471 kts 22°
2026-04-26 10:11 60.50644 31.81722 39000 ft 471 kts 23°
2026-04-26 10:12 60.56668 31.87011 39000 ft 471 kts 23°
2026-04-26 10:12 60.62687 31.92322 39000 ft 471 kts 23°
2026-04-26 10:13 60.68675 31.97533 38995 ft 471 kts 20°
2026-04-26 10:13 60.75043 32.00406 39003 ft 471 kts
2026-04-26 10:14 60.81595 32.00468 39000 ft 471 kts
2026-04-26 10:14 60.88158 32.00870 39000 ft 471 kts
2026-04-26 10:15 60.94704 32.01548 38985 ft 470 kts
2026-04-26 10:15 60.95792 32.01939 38992 ft 470 kts 12°
2026-04-26 10:16 61.09660 32.25920 39000 ft 472 kts 49°
2026-04-26 10:17 61.14149 32.35845 39000 ft 471 kts 45°
2026-04-26 10:17 61.18842 32.45314 39000 ft 471 kts 44°
2026-04-26 10:18 61.23481 32.54787 39000 ft 471 kts 44°
2026-04-26 10:18 61.28155 32.64354 38999 ft 471 kts 44°
2026-04-26 10:19 61.32928 32.73703 39000 ft 471 kts 43°
2026-04-26 10:19 61.37663 32.83187 39000 ft 471 kts 44°
2026-04-26 10:20 61.42371 32.92710 39000 ft 471 kts 44°
2026-04-26 10:20 61.47042 33.02194 38998 ft 471 kts 45°
2026-04-26 10:21 61.51315 33.12577 39000 ft 471 kts 52°
2026-04-26 10:21 61.55222 33.23597 39000 ft 471 kts 53°
2026-04-26 10:22 61.59152 33.34602 39000 ft 471 kts 53°
2026-04-26 10:22 61.62743 33.44489 39000 ft 471 kts 52°
2026-04-26 10:23 61.66728 33.55448 39000 ft 471 kts 52°
2026-04-26 10:23 61.70768 33.66303 39000 ft 471 kts 51°
2026-04-26 10:24 61.74837 33.77154 39000 ft 471 kts 52°
2026-04-26 10:24 61.78760 33.88120 39000 ft 471 kts 53°
2026-04-26 10:25 61.82704 33.99196 39000 ft 471 kts 53°
2026-04-26 10:25 61.86646 34.10278 39000 ft 471 kts 53°
2026-04-26 10:26 61.91112 34.20401 39002 ft 471 kts 41°
2026-04-26 10:26 61.96141 34.29341 39000 ft 471 kts 39°
2026-04-26 10:27 62.01193 34.38224 39000 ft 471 kts 40°
2026-04-26 10:27 62.06210 34.47228 39000 ft 471 kts 40°
2026-04-26 10:28 62.11174 34.56203 39000 ft 471 kts 40°
2026-04-26 10:28 62.16184 34.65232 39000 ft 471 kts 39°
2026-04-26 10:29 62.21257 34.74116 39000 ft 471 kts 40°
2026-04-26 10:29 62.26243 34.83233 39000 ft 471 kts 40°
2026-04-26 10:30 62.31212 34.92410 39000 ft 471 kts 40°
2026-04-26 10:30 62.35347 35.00062 39000 ft 471 kts 40°
2026-04-26 10:31 62.40318 35.09275 39000 ft 471 kts 41°
2026-04-26 10:31 62.45209 35.18558 39000 ft 471 kts 41°
2026-04-26 10:32 62.50142 35.28010 39000 ft 471 kts 41°
2026-04-26 10:32 62.55040 35.37430 39000 ft 471 kts 41°
2026-04-26 10:33 62.59905 35.46819 39000 ft 471 kts 41°
2026-04-26 10:33 62.64809 35.56251 39000 ft 471 kts 40°
2026-04-26 10:34 62.69783 35.65546 39000 ft 471 kts 41°
2026-04-26 10:34 62.74664 35.75072 39000 ft 471 kts 42°
2026-04-26 10:35 62.79531 35.84660 39000 ft 471 kts 42°
2026-04-26 10:35 62.84400 35.94274 39000 ft 471 kts 42°
2026-04-26 10:36 62.89264 36.03883 39000 ft 471 kts 41°
2026-04-26 10:36 62.94159 36.13432 39000 ft 471 kts 41°
2026-04-26 10:37 62.99043 36.22922 38796 ft 463 kts 40°
2026-04-26 10:37 63.01434 36.27495 38338 ft 461 kts 41°
2026-04-26 10:37 63.03845 36.32202 37606 ft 465 kts 41°
2026-04-26 10:38 63.06248 36.36965 37110 ft 463 kts 42°
2026-04-26 10:38 63.08629 36.41713 36747 ft 458 kts 42°
2026-04-26 10:38 63.10982 36.46415 36374 ft 454 kts 42°
2026-04-26 10:38 63.13321 36.51096 35984 ft 451 kts 42°
2026-04-26 10:39 63.15638 36.55740 35592 ft 448 kts 42°
2026-04-26 10:39 63.17939 36.60354 35196 ft 445 kts 42°
2026-04-26 10:39 63.20227 36.64946 34810 ft 443 kts 43°
2026-04-26 10:39 63.22400 36.69753 34430 ft 440 kts 47°
2026-04-26 10:40 63.24430 36.74807 34047 ft 437 kts 50°
2026-04-26 10:40 63.26349 36.80006 33665 ft 434 kts 51°
2026-04-26 10:40 63.28214 36.85277 33285 ft 432 kts 52°
2026-04-26 10:40 63.30073 36.90481 32907 ft 429 kts 51°
2026-04-26 10:41 63.31942 36.95625 32529 ft 426 kts 51°
2026-04-26 10:41 63.33812 37.00733 32153 ft 424 kts 51°
2026-04-26 10:41 63.35667 37.05800 31775 ft 421 kts 51°
2026-04-26 10:41 63.37515 37.10849 31400 ft 419 kts 51°
2026-04-26 10:42 63.39352 37.15866 31024 ft 416 kts 51°
2026-04-26 10:42 63.41155 37.20796 30654 ft 414 kts 51°
2026-04-26 10:42 63.42969 37.25771 30283 ft 411 kts 51°
2026-04-26 10:42 63.44765 37.30712 29911 ft 409 kts 51°
2026-04-26 10:43 63.46550 37.35645 29535 ft 406 kts 51°
2026-04-26 10:43 63.48320 37.40553 29138 ft 404 kts 51°
2026-04-26 10:43 63.50073 37.45431 28742 ft 401 kts 51°
2026-04-26 10:43 63.51820 37.50304 28353 ft 399 kts 51°
2026-04-26 10:44 63.53550 37.55141 27964 ft 396 kts 51°
2026-04-26 10:44 63.55268 37.59957 27575 ft 394 kts 51°
2026-04-26 10:44 63.56973 37.64745 27189 ft 392 kts 51°
2026-04-26 10:44 63.58669 37.69520 26802 ft 389 kts 51°
2026-04-26 10:45 63.60352 37.74267 26419 ft 387 kts 51°
2026-04-26 10:45 63.62020 37.78983 26037 ft 384 kts 51°
2026-04-26 10:45 63.63694 37.83662 25654 ft 382 kts 51°
2026-04-26 10:45 63.65385 37.88262 25276 ft 380 kts 50°
2026-04-26 10:46 63.67035 37.92785 24902 ft 378 kts 51°
2026-04-26 10:46 63.68687 37.97366 24525 ft 375 kts 51°
2026-04-26 10:46 63.70321 38.01941 24150 ft 373 kts 51°
2026-04-26 10:46 63.71939 38.06498 23775 ft 371 kts 51°
2026-04-26 10:47 63.73542 38.11035 23402 ft 369 kts 51°
2026-04-26 10:47 63.75135 38.15559 23029 ft 367 kts 51°
2026-04-26 10:47 63.76719 38.20068 22656 ft 365 kts 51°
2026-04-26 10:47 63.78291 38.24556 22286 ft 363 kts 51°
2026-04-26 10:48 63.79849 38.29015 21915 ft 361 kts 52°
2026-04-26 10:48 63.81403 38.33470 21545 ft 358 kts 52°
2026-04-26 10:48 63.82942 38.37891 21178 ft 356 kts 52°
2026-04-26 10:48 63.84471 38.42292 20809 ft 354 kts 52°
2026-04-26 10:49 63.85989 38.46672 20444 ft 352 kts 52°
2026-04-26 10:49 63.87523 38.51011 20077 ft 350 kts 51°
2026-04-26 10:49 63.89049 38.55290 19713 ft 348 kts 51°
2026-04-26 10:49 63.90536 38.59541 19353 ft 347 kts 52°
2026-04-26 10:50 63.92033 38.63893 18986 ft 345 kts 52°
2026-04-26 10:50 63.93007 38.66744 18745 ft 343 kts 52°
2026-04-26 10:50 63.94935 38.72419 18266 ft 341 kts 52°
2026-04-26 10:50 63.96378 38.76679 17905 ft 339 kts 52°
2026-04-26 10:51 63.97814 38.80924 17546 ft 337 kts 52°
2026-04-26 10:51 64.00658 38.89352 16833 ft 333 kts 52°
2026-04-26 10:51 64.02067 38.93529 16481 ft 332 kts 52°
2026-04-26 10:52 64.03474 38.97705 16128 ft 330 kts 52°
2026-04-26 10:52 64.04873 39.01839 15775 ft 328 kts 52°
2026-04-26 10:52 64.06401 39.05685 15400 ft 327 kts 45°
2026-04-26 10:52 64.08072 39.09169 15059 ft 325 kts 41°
2026-04-26 10:53 64.09800 39.12470 14714 ft 323 kts 39°
2026-04-26 10:53 64.11556 39.15666 14371 ft 321 kts 38°
2026-04-26 10:53 64.13287 39.18783 14034 ft 320 kts 38°
2026-04-26 10:54 64.16759 39.25074 13358 ft 316 kts 38°
2026-04-26 10:54 64.18481 39.28198 13022 ft 315 kts 38°
2026-04-26 10:54 64.20221 39.31253 12686 ft 313 kts 37°
2026-04-26 10:54 64.21942 39.34288 12354 ft 312 kts 38°
2026-04-26 10:55 64.23648 39.37353 12023 ft 310 kts 38°
2026-04-26 10:55 64.25335 39.40427 11694 ft 309 kts 38°
2026-04-26 10:55 64.27012 39.43507 11366 ft 307 kts 39°
2026-04-26 10:55 64.28112 39.45534 11150 ft 306 kts 39°
2026-04-26 10:56 64.30329 39.49632 10722 ft 304 kts 39°
2026-04-26 10:56 64.31971 39.52674 10428 ft 302 kts 39°
2026-04-26 10:56 64.33579 39.55658 10332 ft 292 kts 39°
2026-04-26 10:56 64.35140 39.58558 10191 ft 284 kts 39°
2026-04-26 10:57 64.36668 39.61401 9947 ft 281 kts 39°
2026-04-26 10:57 64.38203 39.64257 9539 ft 284 kts 39°
2026-04-26 10:57 64.39740 39.67118 9248 ft 283 kts 39°
2026-04-26 10:57 64.41267 39.69957 8957 ft 281 kts 39°
2026-04-26 10:58 64.42772 39.72753 8668 ft 280 kts 38°
2026-04-26 10:58 64.44383 39.75349 8375 ft 278 kts 32°
2026-04-26 10:58 64.46053 39.77622 8083 ft 277 kts 29°
2026-04-26 10:58 64.47721 39.79726 7798 ft 276 kts 28°
2026-04-26 10:59 64.49427 39.81867 7505 ft 275 kts 28°
2026-04-26 10:59 64.50534 39.83279 7315 ft 274 kts 29°
2026-04-26 10:59 64.52738 39.86130 6935 ft 273 kts 29°
2026-04-26 10:59 64.54391 39.88289 6650 ft 271 kts 29°
2026-04-26 11:00 64.56032 39.90441 6366 ft 270 kts 29°
2026-04-26 11:00 64.57665 39.92584 6084 ft 269 kts 29°
2026-04-26 11:00 64.58765 39.94029 5894 ft 269 kts 29°
2026-04-26 11:00 64.60389 39.96174 5611 ft 267 kts 30°
2026-04-26 11:01 64.61786 39.98850 5334 ft 263 kts 50°
2026-04-26 11:01 64.62564 40.02626 5133 ft 257 kts 73°
2026-04-26 11:01 64.62805 40.06748 4873 ft 259 kts 86°
2026-04-26 11:01 64.62828 40.10992 4408 ft 265 kts 90°
2026-04-26 11:02 64.62754 40.15326 4034 ft 269 kts 94°
2026-04-26 11:02 64.62577 40.19678 3710 ft 270 kts 96°
2026-04-26 11:02 64.62357 40.24026 3388 ft 270 kts 97°
2026-04-26 11:02 64.62139 40.28375 3068 ft 271 kts 96°
2026-04-26 11:03 64.61925 40.32735 2760 ft 270 kts 96°
2026-04-26 11:03 64.61716 40.37001 2594 ft 252 kts 96°
2026-04-26 11:03 64.61519 40.41051 2192 ft 255 kts 96°
2026-04-26 11:03 64.61318 40.45165 1843 ft 256 kts 96°
2026-04-26 11:04 64.61116 40.49314 1671 ft 255 kts 96°
2026-04-26 11:04 64.60919 40.53348 1674 ft 249 kts 96°
2026-04-26 11:04 64.60722 40.57385 995 ft 250 kts 96°
2026-04-26 11:04 64.60532 40.61286 659 ft 234 kts 96°
2026-04-26 11:05 64.60354 40.64939 422 ft 217 kts 96°
2026-04-26 11:05 64.60193 40.68293 637 ft 212 kts 96°
2026-04-26 11:05 64.60034 40.71828 497 ft 222 kts 95°
2026-04-26 11:05 64.59900 40.75419 490 ft 221 kts 95°
2026-04-26 11:06 64.59770 40.78977 561 ft 219 kts 95°
2026-04-26 11:06 64.59639 40.82577 993 ft 228 kts 95°
2026-04-26 11:06 64.59561 40.86250 2071 ft 231 kts 89°
2026-04-26 11:06 64.60010 40.89843 2665 ft 232 kts 63°
2026-04-26 11:07 64.61140 40.92469 3014 ft 234 kts 34°
2026-04-26 11:07 64.62751 40.93622 3039 ft 257 kts
2026-04-26 11:07 64.64524 40.92900 3013 ft 264 kts 339°
2026-04-26 11:07 64.65983 40.90336 3004 ft 265 kts 311°
2026-04-26 11:08 64.66887 40.86620 3028 ft 263 kts 293°
2026-04-26 11:08 64.67385 40.82511 3024 ft 261 kts 284°
2026-04-26 11:08 64.67860 40.78412 3006 ft 262 kts 285°
2026-04-26 11:08 64.68327 40.74296 3000 ft 261 kts 284°
2026-04-26 11:09 64.68770 40.70273 2995 ft 250 kts 284°
2026-04-26 11:09 64.69185 40.66444 2992 ft 238 kts 284°
2026-04-26 11:09 64.69585 40.62737 2996 ft 233 kts 284°
2026-04-26 11:09 64.69978 40.59099 2999 ft 230 kts 284°
2026-04-26 11:10 64.70372 40.55457 3001 ft 231 kts 284°
2026-04-26 11:10 64.70766 40.51812 3001 ft 232 kts 284°
2026-04-26 11:10 64.71134 40.48132 2999 ft 232 kts 281°
2026-04-26 11:10 64.71370 40.44397 3002 ft 232 kts 277°
2026-04-26 11:11 64.71546 40.40645 3002 ft 234 kts 276°
2026-04-26 11:11 64.71733 40.36699 3015 ft 254 kts 276°
2026-04-26 11:11 64.71929 40.32535 3005 ft 260 kts 276°
2026-04-26 11:11 64.72127 40.28302 3002 ft 263 kts 276°
2026-04-26 11:12 64.72324 40.24083 2999 ft 255 kts 276°
2026-04-26 11:12 64.72514 40.20028 2994 ft 248 kts 276°
2026-04-26 11:12 64.72700 40.16028 2994 ft 248 kts 276°
2026-04-26 11:12 64.72886 40.12021 2994 ft 248 kts 276°
2026-04-26 11:13 64.73074 40.07987 2987 ft 251 kts 276°
2026-04-26 11:13 64.73254 40.03972 2871 ft 251 kts 275°
2026-04-26 11:13 64.73121 39.99980 2734 ft 243 kts 255°
2026-04-26 11:13 64.72242 39.96728 2600 ft 235 kts 226°
2026-04-26 11:14 64.70828 39.94970 2487 ft 230 kts 199°
2026-04-26 11:14 64.69262 39.94291 2367 ft 229 kts 186°
2026-04-26 11:14 64.67700 39.94847 2220 ft 228 kts 162°
2026-04-26 11:14 64.66300 39.96547 2182 ft 224 kts 149°
2026-04-26 11:15 64.65025 39.98467 2093 ft 213 kts 146°
2026-04-26 11:15 64.63970 40.00791 2026 ft 209 kts 127°
2026-04-26 11:15 64.63463 40.03909 2016 ft 204 kts 105°
2026-04-26 11:15 64.63186 40.07137 1985 ft 204 kts 100°
2026-04-26 11:16 64.62996 40.10416 2026 ft 205 kts 97°
2026-04-26 11:16 64.62840 40.13735 2011 ft 206 kts 96°
2026-04-26 11:16 64.62683 40.17045 2004 ft 206 kts 96°
2026-04-26 11:16 64.62525 40.20352 2000 ft 205 kts 96°
2026-04-26 11:17 64.62366 40.23649 1997 ft 201 kts 96°
2026-04-26 11:17 64.62214 40.26776 1989 ft 189 kts 96°
2026-04-26 11:17 64.62068 40.29767 1992 ft 181 kts 96°
2026-04-26 11:17 64.61933 40.32541 1994 ft 167 kts 96°
2026-04-26 11:18 64.61807 40.35136 1992 ft 156 kts 96°
2026-04-26 11:18 64.61688 40.37583 2011 ft 152 kts 96°
2026-04-26 11:18 64.61570 40.40001 1991 ft 149 kts 96°
2026-04-26 11:18 64.61453 40.42397 1993 ft 149 kts 96°
2026-04-26 11:19 64.61337 40.44780 1904 ft 148 kts 96°
2026-04-26 11:19 64.61220 40.47173 1698 ft 149 kts 96°
2026-04-26 11:19 64.61104 40.49559 1517 ft 148 kts 96°
2026-04-26 11:19 64.60988 40.51946 1339 ft 148 kts 96°
2026-04-26 11:20 64.60871 40.54328 1164 ft 147 kts 96°
2026-04-26 11:20 64.60795 40.55895 1048 ft 147 kts 96°
2026-04-26 11:20 64.60641 40.59058 816 ft 147 kts 96°
2026-04-26 11:20 64.60525 40.61421 643 ft 146 kts 96°
2026-04-26 11:21 64.60411 40.63776 470 ft 146 kts 96°
2026-04-26 11:21 64.60296 40.66121 299 ft 146 kts 96°
2026-04-26 11:21 64.60182 40.68464 128 ft 145 kts 96°
2026-04-26 11:21 64.60082 40.70487 76 ft 70 kts 96°
2026-04-26 11:22 64.60048 40.71158 76 ft 28 kts 99°
2026-04-26 11:22 64.60021 40.71321 76 ft 0 kts 137°
2026-04-26 11:22 64.60016 40.71330 76 ft 1 kts 150°
2026-04-26 11:22 64.60007 40.71335 76 ft 1 kts 174°
2026-04-26 11:23 64.59992 40.71331 76 ft 5 kts 187°
2026-04-26 11:23 64.59932 40.71316 76 ft 12 kts 185°
2026-04-26 11:23 64.59822 40.71288 76 ft 20 kts 187°
2026-04-26 11:23 64.59727 40.71311 76 ft 7 kts 122°
2026-04-26 11:24 64.59717 40.71488 76 ft 17 kts 96°
2026-04-26 11:24 64.59693 40.71650 76 ft 7 kts 147°
2026-04-26 11:24 64.59667 40.71653 76 ft 0 kts 186°